Terug naar catalogus

ARIANE 5 R/B

ActiefHEO
NORAD 33754·ROCKET BODY·🇫🇷 France

Gelanceerd Feb 12, 2009 vanaf Guiana Space Centre

Loading…

Volgende Passages (komende 24 uur)

TLE

VersSource: Space-Track

Epoch: Sep 13, 2026, 23:30 UTC

1 33754U 09008F   26256.97944784  .00001921  00000-0  83993-3 0  9990
2 33754   2.4368 354.9897 7093301  17.0015 357.8239  2.50773335152582

Volg ARIANE 5 R/B in realtime met AllMySat

Download on the App Store